TimeCDT,TemperatureF,Dew PointF,Humidity,Sea Level PressureIn,VisibilityMPH,Wind Direction,Wind SpeedMPH,Gust SpeedMPH,PrecipitationIn,Events,Conditions,WindDirDegrees,DateUTC
12:15 AM,78.1,68.0,71,30.08,10.0,South,3.5,-,N/A,,Clear,170,2013-06-22 05:15:00
12:35 AM,77.9,68.0,71,30.08,10.0,SSE,4.6,-,N/A,,Clear,160,2013-06-22 05:35:00
12:55 AM,77.9,68.0,71,30.10,10.0,Calm,Calm,-,N/A,,Clear,0,2013-06-22 05:55:00
1:15 AM,77.4,68.0,73,30.10,10.0,Calm,Calm,-,N/A,,Clear,0,2013-06-22 06:15:00
1:35 AM,76.3,68.0,75,30.09,10.0,South,3.5,-,N/A,,Clear,170,2013-06-22 06:35:00
1:55 AM,76.5,68.0,75,30.09,10.0,Calm,Calm,-,N/A,,Clear,0,2013-06-22 06:55:00
2:15 AM,75.9,68.0,76,30.10,10.0,Calm,Calm,-,N/A,,Clear,0,2013-06-22 07:15:00
2:35 AM,73.9,68.2,82,30.10,10.0,Calm,Calm,-,N/A,,Clear,0,2013-06-22 07:35:00
2:55 AM,73.0,70.0,90,30.09,10.0,Calm,Calm,-,N/A,,Clear,0,2013-06-22 07:55:00
3:15 AM,72.5,71.4,96,30.09,10.0,Calm,Calm,-,N/A,,Clear,0,2013-06-22 08:15:00
3:35 AM,72.0,71.8,99,30.09,10.0,Calm,Calm,-,N/A,,Clear,0,2013-06-22 08:35:00
3:55 AM,71.6,71.6,100,30.09,7.0,Calm,Calm,-,N/A,,Clear,0,2013-06-22 08:55:00
4:15 AM,72.5,70.9,95,30.08,10.0,Calm,Calm,-,N/A,,Clear,0,2013-06-22 09:15:00
4:35 AM,71.2,71.2,100,30.09,10.0,Calm,Calm,-,N/A,,Clear,0,2013-06-22 09:35:00
4:55 AM,71.6,71.6,100,30.09,10.0,Calm,Calm,-,N/A,,Clear,0,2013-06-22 09:55:00
5:15 AM,72.0,71.1,97,30.10,10.0,Calm,Calm,-,N/A,,Clear,0,2013-06-22 10:15:00
5:35 AM,70.7,70.7,100,30.11,7.0,Calm,Calm,-,N/A,,Clear,0,2013-06-22 10:35:00
5:55 AM,70.7,70.7,100,30.12,7.0,Calm,Calm,-,N/A,,Clear,0,2013-06-22 10:55:00
6:15 AM,72.0,72.0,100,30.12,10.0,Calm,Calm,-,N/A,,Clear,0,2013-06-22 11:15:00
6:35 AM,72.7,72.7,100,30.12,5.0,Calm,Calm,-,N/A,,Clear,0,2013-06-22 11:35:00
6:55 AM,74.8,71.2,88,30.13,10.0,Calm,Calm,-,N/A,,Clear,0,2013-06-22 11:55:00
7:15 AM,76.1,71.2,85,30.13,10.0,South,3.5,-,N/A,,Clear,180,2013-06-22 12:15:00
7:35 AM,76.8,71.1,82,30.13,10.0,South,4.6,-,N/A,,Clear,180,2013-06-22 12:35:00
7:55 AM,78.1,69.3,74,30.15,10.0,South,3.5,-,N/A,,Clear,180,2013-06-22 12:55:00
8:15 AM,79.5,69.4,71,30.14,10.0,South,4.6,-,N/A,,Clear,180,2013-06-22 13:15:00
8:35 AM,80.6,68.9,67,30.15,10.0,South,6.9,-,N/A,,Clear,180,2013-06-22 13:35:00
8:55 AM,81.5,68.9,65,30.15,10.0,South,4.6,-,N/A,,Clear,180,2013-06-22 13:55:00
9:15 AM,82.8,68.4,62,30.15,10.0,South,8.1,-,N/A,,Clear,190,2013-06-22 14:15:00
9:35 AM,83.5,68.7,61,30.15,10.0,South,5.8,-,N/A,,Clear,180,2013-06-22 14:35:00
9:55 AM,84.4,68.7,59,30.15,10.0,South,6.9,-,N/A,,Clear,180,2013-06-22 14:55:00
10:15 AM,85.1,68.9,58,30.16,10.0,South,4.6,-,N/A,,Clear,170,2013-06-22 15:15:00
10:35 AM,86.0,68.2,55,30.15,10.0,South,5.8,-,N/A,,Clear,190,2013-06-22 15:35:00
10:55 AM,86.0,67.8,54,30.15,10.0,South,6.9,-,N/A,,Clear,170,2013-06-22 15:55:00
11:15 AM,86.7,68.2,54,30.15,10.0,South,8.1,-,N/A,,Clear,190,2013-06-22 16:15:00
11:35 AM,87.1,67.5,52,30.14,10.0,South,5.8,-,N/A,,Clear,180,2013-06-22 16:35:00
11:55 AM,87.6,68.0,52,30.15,10.0,South,4.6,-,N/A,,Clear,170,2013-06-22 16:55:00
12:15 PM,87.6,67.6,51,30.15,10.0,SSE,4.6,-,N/A,,Clear,150,2013-06-22 17:15:00
12:35 PM,88.5,67.6,50,30.14,10.0,South,5.8,-,N/A,,Clear,170,2013-06-22 17:35:00
12:55 PM,88.2,67.5,50,30.13,10.0,South,5.8,-,N/A,,Clear,190,2013-06-22 17:55:00
1:15 PM,88.7,67.5,49,30.13,10.0,SSW,5.8,-,N/A,,Clear,200,2013-06-22 18:15:00
1:35 PM,89.8,67.5,48,30.12,10.0,South,8.1,-,N/A,,Clear,190,2013-06-22 18:35:00
1:55 PM,89.4,67.1,48,30.11,10.0,SE,5.8,-,N/A,,Scattered Clouds,140,2013-06-22 18:55:00
2:15 PM,89.8,67.8,48,30.09,10.0,South,5.8,-,N/A,,Scattered Clouds,180,2013-06-22 19:15:00
2:35 PM,89.4,67.3,48,30.08,10.0,South,8.1,-,N/A,,Scattered Clouds,190,2013-06-22 19:35:00
2:55 PM,87.6,66.9,50,30.07,10.0,South,6.9,-,N/A,,Mostly Cloudy,170,2013-06-22 19:55:00
3:15 PM,88.0,67.3,50,30.06,10.0,South,9.2,-,N/A,,Scattered Clouds,170,2013-06-22 20:15:00
3:35 PM,88.9,66.2,47,30.06,10.0,SSE,9.2,-,N/A,,Scattered Clouds,160,2013-06-22 20:35:00
3:55 PM,89.6,63.9,42,30.06,10.0,South,5.8,-,N/A,,Scattered Clouds,170,2013-06-22 20:55:00
4:15 PM,89.8,64.6,43,30.06,10.0,South,8.1,-,N/A,,Clear,180,2013-06-22 21:15:00
4:35 PM,89.6,64.2,43,30.06,10.0,SSE,5.8,-,N/A,,Clear,160,2013-06-22 21:35:00
4:55 PM,90.0,65.3,44,30.06,10.0,SE,5.8,-,N/A,,Scattered Clouds,140,2013-06-22 21:55:00
5:15 PM,89.6,66.0,46,30.06,10.0,SSE,6.9,-,N/A,,Scattered Clouds,150,2013-06-22 22:15:00
5:35 PM,89.1,66.4,47,30.06,10.0,SE,4.6,-,N/A,,Scattered Clouds,140,2013-06-22 22:35:00
5:55 PM,88.7,65.7,46,30.05,10.0,South,4.6,-,N/A,,Clear,180,2013-06-22 22:55:00
6:15 PM,88.7,65.1,45,30.06,10.0,South,3.5,-,N/A,,Clear,170,2013-06-22 23:15:00
6:35 PM,87.8,65.7,48,30.06,10.0,Calm,Calm,-,N/A,,Clear,0,2013-06-22 23:35:00
6:55 PM,86.4,68.2,54,30.07,10.0,Calm,Calm,-,N/A,,Clear,0,2013-06-22 23:55:00
7:15 PM,85.3,68.9,58,30.07,10.0,Calm,Calm,-,N/A,,Clear,0,2013-06-23 00:15:00
7:35 PM,82.4,71.2,69,30.07,10.0,Calm,Calm,-,N/A,,Clear,0,2013-06-23 00:35:00
7:55 PM,79.2,65.1,62,30.09,10.0,North,15.0,18.4,N/A,,Mostly Cloudy,350,2013-06-23 00:55:00
8:15 PM,76.8,64.4,65,30.10,10.0,North,11.5,17.3,N/A,Rain,Rain,360,2013-06-23 01:15:00
8:35 PM,74.3,66.6,77,30.09,10.0,North,8.1,-,N/A,,Mostly Cloudy,10,2013-06-23 01:35:00
8:55 PM,73.6,67.1,80,30.10,10.0,North,3.5,-,N/A,,Overcast,360,2013-06-23 01:55:00
9:15 PM,74.7,65.1,72,30.12,10.0,West,8.1,-,N/A,,Mostly Cloudy,280,2013-06-23 02:15:00
9:35 PM,73.8,64.0,72,30.12,10.0,West,8.1,-,N/A,,Mostly Cloudy,270,2013-06-23 02:35:00
9:55 PM,72.7,64.8,76,30.12,10.0,West,5.8,-,N/A,,Scattered Clouds,260,2013-06-23 02:55:00
10:15 PM,72.0,64.9,78,30.12,10.0,West,4.6,-,N/A,,Clear,260,2013-06-23 03:15:00
10:35 PM,71.8,64.6,78,30.11,10.0,Calm,Calm,-,N/A,,Clear,0,2013-06-23 03:35:00
10:55 PM,71.2,64.4,79,30.09,10.0,Calm,Calm,-,N/A,,Scattered Clouds,0,2013-06-23 03:55:00
11:15 PM,70.5,64.6,81,30.07,10.0,South,3.5,-,N/A,,Clear,180,2013-06-23 04:15:00
11:35 PM,70.7,64.6,81,30.04,10.0,SE,4.6,-,N/A,,Clear,140,2013-06-23 04:35:00
11:55 PM,70.7,64.2,80,30.03,10.0,SSE,4.6,-,N/A,,Clear,150,2013-06-23 04:55:00